Weather in Etrek

Turkmenistan     37°39′46″N   54°46′07″E
temp.,
°C
wind,
m/s
gust,
m/s
humid.,
%
clouds,
%
prec.,
mm/h
press.,
hPa
HPBL,
m
14 april, wed
wed1423:00+19w44560 0.0 1016244
02:00+18sw33620 0.0 1014134
05:00+16sw23681 0.0 101466
08:00+16s11692 0.0 101499
11:00+22ne12483 0.0 1013469
14:00+28nne33255 0.0 1010938
17:00+31nne02155 0.0 10081459
20:00+28wnw56196 0.0 100872
15 april, thu
thu1523:00+19sw8104799 0.0 1013408
02:00+17sw81064100 0.1 1014403
05:00+16wsw61065100 0.1 1015489
08:00+15ssw68725 0.0 1016419
11:00+20sw67460 0.0 1017766
14:00+24wsw54310 0.0 10151126
17:00+25w44264 0.0 10131453
20:00+23wnw56310 0.0 1014255
16 april, fri
fri1623:00+18w45495 0.0 1016226
02:00+17sw335644 0.0 101590
05:00+16ssw2360100 0.0 101560
08:00+16ssw345873 0.0 1016214
11:00+19ssw4443100 0.0 1017606
14:00+23sw4331100 0.0 10161257
17:00+23sw53345 0.1 10171300
20:00+21wsw55380 0.0 1017307
17 april, sat
sat1723:00+18sw574546 0.0 1018188
02:00+16wsw115195 0.0 101816
05:00+15sse22520 0.0 101812
08:00+16sse23470 0.0 101995
11:00+21e11310 0.0 1019556
14:00+25nne222523 0.0 10181184
17:00+27n32203 0.0 10171642
20:00+26nnw442363 0.0 101863
18 april, sun
sun1823:00+24nne4526100 0.0 101855
02:00+21ne333014 0.0 101817
05:00+19ese113956 0.0 101811
08:00+19s334488 0.0 101995
11:00+23s3232100 0.0 1019520
14:00+28e1121100 0.0 10161217
17:00+31wnw4313100 0.0 10131987
20:00+27w4421100 0.0 1015112